DateTimeUTC,F1_A11,F1_S11,BsB_S11,BsG_S11,BsR_S11,BbsB_S11,BbsG_S11,BbsR_S11,BaB_A11,BaG_A11,BaR_A11,Tu_S11,T_S11,Uu_S11,U_S11,P_S11,T1_A11
2021-07-26T22:00:00Z,00000200,20000000,,,,,,,0000.31,0000.14,0000.10,19.1,26.0,08.2,05.4,0679.9,31.1
2021-07-26T22:01:00Z,00000200,20000000,,,,,,,0000.04,0000.19,0000.22,19.1,26.0,08.2,05.4,0679.9,31.1
2021-07-26T22:02:00Z,00000200,20000000,,,,,,,0000.05,-000.29,0000.15,19.1,26.0,08.2,05.4,0679.9,31.1
2021-07-26T22:03:00Z,00000200,60000000,,,,,,,0000.01,0000.08,-000.29,19.1,26.0,08.2,05.4,0679.9,31.1
2021-07-26T22:04:00Z,00000200,40000000,-000.67,0000.16,0000.05,0000.32,-000.23,0000.09,-000.01,-000.01,0000.32,19.2,25.8,08.3,05.6,0680.9,31.1
2021-07-26T22:05:00Z,00000200,00000000,0000.65,-000.23,-000.13,0000.18,0000.11,-000.08,0000.14,0000.05,-000.20,19.2,25.7,08.4,05.7,0681.0,31.1
2021-07-26T22:06:00Z,00000200,00000000,-000.10,0000.09,-000.32,-000.15,-000.25,0000.41,-000.23,0000.23,0000.38,19.2,25.7,08.5,05.7,0681.0,31.1
2021-07-26T22:07:00Z,00000200,00000000,0000.13,-000.15,-000.04,0000.29,0000.11,0000.28,0000.16,0000.09,-000.12,19.2,25.7,08.5,05.7,0681.0,31.1
2021-07-26T22:08:00Z,00000200,00000000,0000.46,0000.36,-000.13,-000.13,0000.03,0000.25,0000.42,-000.08,0000.16,19.2,25.7,08.5,05.8,0681.0,31.1
2021-07-26T22:09:00Z,00000200,00000000,0000.25,0000.56,0000.02,-000.15,0000.22,0000.50,-000.20,0000.12,-000.00,19.2,25.7,08.6,05.8,0681.0,31.1
2021-07-26T22:10:00Z,00000200,00000000,0000.23,-000.08,-000.08,0000.57,-000.09,0000.00,0000.17,0000.27,0000.05,19.2,25.6,08.7,05.9,0681.0,31.1
2021-07-26T22:11:00Z,00000200,00000000,0000.03,-000.06,-000.12,-000.25,-000.15,0000.21,0000.09,-000.06,0000.08,19.2,25.6,08.7,05.9,0681.0,31.1
2021-07-26T22:12:00Z,00000200,00000000,0000.50,0000.14,-000.10,0000.18,0000.16,-000.10,0000.17,0000.11,-000.04,19.2,25.6,08.7,05.9,0681.0,31.1
2021-07-26T22:13:00Z,00000200,00000000,-000.04,0000.04,0000.06,0000.37,-000.06,0000.18,-000.43,-000.02,0000.19,19.2,25.6,08.7,05.8,0681.0,31.1
2021-07-26T22:14:00Z,00000200,00000000,-000.11,0000.31,-000.11,0000.29,-000.06,-000.07,0000.14,-000.26,-000.29,19.2,25.6,08.6,05.8,0681.0,31.1
2021-07-26T22:15:00Z,00000200,00000000,0000.67,0000.00,0000.33,0000.03,-000.39,-000.21,-000.03,0000.20,0000.34,19.2,25.6,08.8,06.0,0681.1,31.1
2021-07-26T22:16:00Z,00000200,00000000,0000.16,0000.04,-000.31,0000.24,-000.16,-000.29,0000.09,0000.15,-000.27,19.2,25.6,08.6,05.8,0681.1,31.1
2021-07-26T22:17:00Z,00000200,00000000,-000.13,0000.10,-000.07,0000.37,-000.02,0000.27,0000.15,-000.28,0000.09,19.2,25.6,08.7,05.9,0681.1,31.1
2021-07-26T22:18:00Z,00000200,00000000,0000.11,-000.01,0000.07,-000.15,0000.20,0000.13,0000.10,0000.12,0000.11,19.2,25.6,08.6,05.9,0681.1,31.1
2021-07-26T22:19:00Z,00000200,00000000,-000.07,0000.00,0000.15,0000.06,0000.12,-000.01,0000.12,-000.23,0000.07,19.2,25.6,08.8,06.0,0681.1,31.1
2021-07-26T22:20:00Z,00000200,00000000,0000.46,0000.20,0000.02,0000.25,0000.15,-000.20,-000.36,0000.04,-000.18,19.1,25.6,08.7,05.9,0681.1,31.1
2021-07-26T22:21:00Z,00000200,00000000,-000.06,0000.22,-000.24,0000.17,0000.00,-000.39,0000.26,0000.46,0000.15,19.1,25.6,08.8,05.9,0681.1,31.1
2021-07-26T22:22:00Z,00000200,00000000,-000.05,0000.02,0000.03,-000.27,-000.05,0000.38,-000.28,-000.32,0000.02,19.1,25.5,08.7,05.9,0681.1,31.1
2021-07-26T22:23:00Z,00000200,00000000,0000.11,0000.28,0000.13,0000.09,-000.02,0000.23,0000.26,0000.25,0000.28,19.2,25.5,08.7,05.9,0681.1,31.1
2021-07-26T22:24:00Z,00000200,00000000,0000.14,-000.21,0000.03,0000.11,-000.02,-000.01,-000.09,-000.00,-000.27,19.1,25.5,08.7,05.9,0681.1,31.1
2021-07-26T22:25:00Z,00000200,00000000,0000.68,0000.22,0000.37,-000.11,0000.01,0000.37,0000.20,-000.01,0000.03,19.1,25.5,08.8,06.0,0681.1,31.1
2021-07-26T22:26:00Z,00000200,00000000,0000.07,0000.16,-000.03,0000.18,0000.11,0000.34,0000.17,0000.23,0000.18,19.1,25.5,08.8,06.0,0681.1,31.1
2021-07-26T22:27:00Z,00000200,00000000,0000.29,-000.14,0000.24,-000.05,-000.09,0000.23,0000.22,-000.04,-000.02,19.1,25.5,08.8,06.0,0681.1,31.1
2021-07-26T22:28:00Z,00000200,00000000,0000.19,0000.10,0000.24,-000.32,0000.30,0000.23,-000.17,-000.17,0000.12,19.1,25.5,08.9,06.0,0681.1,31.1
2021-07-26T22:29:00Z,00000200,00000000,0000.18,0000.23,0000.04,-000.38,0000.09,0000.29,0000.12,0000.41,-000.25,19.1,25.5,08.9,06.1,0681.1,31.1
2021-07-26T22:30:00Z,00000200,00000000,0000.80,0000.47,-000.00,0000.14,-000.20,-000.19,0000.01,0000.16,0000.81,19.1,25.5,09.0,06.1,0681.1,31.1
2021-07-26T22:31:00Z,00000200,00000000,0000.27,0000.20,-000.08,0000.22,0000.08,0000.10,0000.32,-000.29,-000.52,19.1,25.5,09.0,06.1,0681.1,31.1
2021-07-26T22:32:00Z,00000200,00000000,0000.73,0000.05,0000.18,0000.08,0000.43,0000.43,-000.18,0000.12,-000.01,19.1,25.4,09.0,06.1,0681.1,31.1
2021-07-26T22:33:00Z,00000200,00000000,0000.45,0000.26,0000.08,0000.54,0000.36,-000.30,-000.12,0000.37,0000.55,19.1,25.5,09.0,06.1,0681.1,31.1
2021-07-26T22:34:00Z,00000200,00000000,-000.14,0000.04,-000.37,0000.01,0000.03,0000.02,0000.07,-000.21,-000.29,19.1,25.4,09.1,06.2,0681.2,31.1
2021-07-26T22:35:00Z,00000200,00000000,0000.14,0000.35,0000.07,0000.30,0000.09,0000.13,0000.09,0000.13,-000.03,19.1,25.4,09.1,06.1,0681.1,31.1
2021-07-26T22:36:00Z,00000200,00000000,0000.42,0000.62,0000.05,-000.17,0000.06,-000.24,-000.18,-000.08,0000.18,19.1,25.4,09.2,06.2,0681.2,31.1
2021-07-26T22:37:00Z,00000200,00000000,-000.01,0000.32,-000.32,0000.34,0000.07,0000.09,0000.43,0000.32,0000.22,19.1,25.4,09.2,06.3,0681.1,31.1
2021-07-26T22:38:00Z,00000200,00000000,0000.76,0000.10,0000.09,0000.24,-000.05,0000.06,0000.25,0000.09,0000.13,19.0,25.4,09.2,06.3,0681.2,31.1
2021-07-26T22:39:00Z,00000200,00000000,-000.39,0000.09,-000.08,0000.56,0000.22,0000.14,-000.30,-000.03,-000.13,19.0,25.4,09.3,06.3,0681.1,31.1
2021-07-26T22:40:00Z,00000200,00000000,0000.78,0000.11,0000.19,-000.49,0000.22,0000.08,0000.11,0000.13,-000.25,19.0,25.4,09.3,06.3,0681.2,31.1
2021-07-26T22:41:00Z,00000200,00000000,0000.39,0000.33,0000.05,-000.28,0000.22,-000.00,0000.18,-000.12,0000.42,19.0,25.4,09.3,06.3,0681.2,31.1
2021-07-26T22:42:00Z,00000200,00000000,-000.01,0000.27,0000.01,-000.49,-000.07,0000.09,0000.05,0000.08,0000.04,19.0,25.4,09.4,06.4,0681.2,31.1
2021-07-26T22:43:00Z,00000200,00000000,0000.23,0000.41,-000.01,0000.30,0000.15,0000.20,-000.07,0000.37,-000.37,19.0,25.4,09.4,06.4,0681.2,31.1
2021-07-26T22:44:00Z,00000200,00000000,-000.20,0000.16,0000.12,0000.15,-000.14,0000.06,0000.42,-000.11,0000.27,19.0,25.4,09.5,06.4,0681.2,31.1
2021-07-26T22:45:00Z,00000200,00000000,0000.05,0000.23,0000.14,0000.20,0000.10,0000.32,0000.09,0000.36,0000.43,19.0,25.4,09.4,06.4,0681.2,31.1
2021-07-26T22:46:00Z,00000200,00000000,0000.05,0000.47,0000.11,-000.12,-000.06,0000.41,-000.12,-000.28,-000.32,19.0,25.4,09.4,06.4,0681.2,31.1
2021-07-26T22:47:00Z,00000200,00000000,0000.29,0000.43,0000.21,0000.46,-000.01,0000.08,0000.13,0000.35,0000.62,19.0,25.3,09.6,06.5,0681.2,31.1
2021-07-26T22:48:00Z,00000200,00000000,0001.20,0000.13,-000.04,0000.06,0000.11,0000.26,-000.06,-000.20,-000.24,19.0,25.3,09.6,06.5,0681.2,31.1
2021-07-26T22:49:00Z,00000200,00000000,0000.37,0000.49,0000.27,0000.16,0000.12,0000.21,-000.00,0000.15,0000.04,19.0,25.3,09.6,06.5,0681.2,31.1
2021-07-26T22:50:00Z,00000200,00000000,0000.01,0000.40,0000.06,0000.83,0000.04,-000.01,-000.19,-000.12,0000.04,19.0,25.3,09.7,06.5,0681.2,31.1
2021-07-26T22:51:00Z,00000200,00000000,0000.49,0000.48,0000.30,-000.36,0000.09,0000.28,0000.18,0000.07,-000.16,19.0,25.3,09.6,06.5,0681.2,31.1
2021-07-26T22:52:00Z,00000200,00000000,0000.27,0000.45,0000.20,-000.10,-000.11,0000.29,0000.22,0000.39,0000.37,19.0,25.3,09.7,06.6,0681.2,31.1
2021-07-26T22:53:00Z,00000200,00000000,0000.55,0000.51,0000.23,0000.07,0000.39,0000.02,0000.22,-000.14,-000.03,19.0,25.3,09.7,06.6,0681.2,31.1
2021-07-26T22:54:00Z,00000200,00000000,-000.13,0000.48,-000.04,0000.25,0000.17,0000.11,0000.09,0000.48,0000.21,19.0,25.3,09.8,06.7,0681.3,31.1
2021-07-26T22:55:00Z,00000200,00000000,0000.62,0000.47,-000.01,-000.13,0000.10,0000.30,0000.02,-000.12,-000.23,19.0,25.3,09.8,06.7,0681.2,31.1
2021-07-26T22:56:00Z,00000200,00000000,0000.04,0000.28,0000.04,-000.32,-000.10,0000.34,-000.18,-000.24,0000.32,18.9,25.3,09.8,06.7,0681.3,31.1
2021-07-26T22:57:00Z,00000200,40000000,,,,,,,0000.30,-000.32,-000.45,19.0,25.3,09.5,06.5,0681.3,31.1
2021-07-26T22:58:00Z,00000200,60000000,,,,,,,-000.50,0000.17,0000.14,18.8,25.4,09.5,06.3,0680.2,31.0
2021-07-26T22:59:00Z,00000200,20000000,,,,,,,0000.18,0000.33,0000.22,18.7,25.5,09.6,06.3,0680.3,31.1
